Regional Weather Roundup
Issued by NWS

Home | Current Version | Previous Version | Text Only | Print | Product List | Glossary On
Versions: 1 2 3 4 5 6 7 8 9 10 11 12 13 14 15 16 17 18 19 20 21 22 23 24 25 26 27
000
ASUS45 KTFX 282010
RWRMT
MONTANA REGIONAL WEATHER ROUNDUP
NATIONAL WEATHER SERVICE GREAT FALLS MT
200 PM MDT SAT MAY 28 2016

NOTE: "FAIR" INDICATES FEW OR NO CLOUDS BELOW 12000 FEET WITH NO
SIGNIFICANT WEATHER AND/OR OBSTRUCTIONS TO VISIBILITY.

MTZ001>007-043-282100-
WEST OF THE DIVIDE

CITY           SKY/WX    TMP DP  RH WIND       PRES   REMARKS
KALISPELL      PTSUNNY   56  35  45 SE10      30.00F
MISSOULA       CLOUDY    59  33  37 CALM      30.06S
BUTTE          CLOUDY    54  29  38 VRB6      30.03F
MULLAN PASS    CLOUDY    40  26  57 CALM      30.07S
ANACONDA         N/A     54  32  43 NE8       30.03S
DEER LODGE       N/A     52  30  43 W6        30.05S
EUREKA           N/A     55  34  44 NE5       30.00F
HAMILTON         N/A     59  25  27 W8        30.04F
LIBBY            N/A     57  28  33 SW6       30.03S
$$

MTZ008-052>055-282100-
SOUTHWEST MONTANA

CITY           SKY/WX    TMP DP  RH WIND       PRES   REMARKS
BOZEMAN        CLOUDY    60  41  49 NE7       30.02F
DILLON         CLOUDY    57  31  37 W6        30.01F
W YELLOWSTONE  CLOUDY    52  32  46 S20G28    30.08S
ENNIS          CLOUDY    55  39  54 VRB5G15   30.08F
$$

MTZ009-010-012-014-046-048-049-054-282100-
EAST SLOPES AND CENTRAL MONTANA

CITY           SKY/WX    TMP DP  RH WIND       PRES   REMARKS
CUT BANK       CLOUDY    54  29  38 W9        29.95S
GREAT FALLS    CLOUDY    60  26  27 W20G26    29.98S
MALMSTROM AFB  PTSUNNY   59  27  29 W13G25    29.98S
HELENA         CLOUDY    63  30  28 NW10G22   30.01S
CHOTEAU          N/A     59  27  29 SW7G20    29.98S
$$

MTZ011-013-016-021-045-047-050-051-282100-
NORTH CENTRAL MONTANA

CITY           SKY/WX    TMP DP  RH WIND       PRES   REMARKS
HAVRE          MOSUNNY   63  35  35 SW18      29.92S
LEWISTOWN      MOSUNNY   59  33  37 VRB7G17   29.98S
N BAR RANCH    PTSUNNY   61  34  36 NW8G17    29.99S
CHINOOK          N/A     64  34  32 SW10G21   29.92F
$$

MTZ017>020-022>027-061-062-282100-
NORTHEAST MONTANA

CITY           SKY/WX    TMP DP  RH WIND       PRES   REMARKS
GLASGOW        MOSUNNY   64  47  53 NW12      29.91S
JORDAN           N/A     67  40  37 NW20G25   29.92F
SIDNEY         CLOUDY    70  55  60 NW15      29.85S
WOLF POINT     CLOUDY    67  51  56 W18G24    29.90R
PLENTYWOOD       N/A     61  54  77 SE3       29.88S
POPLAR           N/A     63  52  67 W13G18    29.88F
$$

MTZ028>42-056>058-282100-
SOUTHCENTRAL AND SOUTHEAST MONTANA

CITY           SKY/WX    TMP DP  RH WIND       PRES   REMARKS
BAKER          MOSUNNY   64  48  56 NW13G24   29.91S
BILLINGS       PTSUNNY   64  36  35 NW6       29.98F
LIVINGSTON     CLOUDY    53  44  71 SW13      30.01F
MILES CITY     PTSUNNY   69  45  41 NW13      29.93S
FORSYTH          N/A     66  39  37 W13       29.94S
$$

REGIONAL REPORTS...DAKOTAS

CITY           SKY/WX    TMP DP  RH WIND       PRES   REMARKS
WILLISTON      CLOUDY    68  52  56 NE6       29.86F
MINOT          CLOUDY    67  52  58 CALM      29.88S
DICKINSON      TSTM      55  51  86 SW10      29.88R FOG
BEACH            N/A     68  48  49 W24G31    29.91R
CROSBY         CLOUDY    57  57 100 E14       29.92F FOG
WATFORD CITY     N/A     66  48  52 SW15      29.87R
BISMARCK       RAIN      64  58  80 NE5       29.87S
GRAND FORKS    CLOUDY    72  54  53 NE8       29.81F
FARGO          CLOUDY    69  56  62 N13       29.79S
BUFFALO SD       N/A     69  52  54 NE9       29.84S
RAPID CITY     LGT RAIN  61  53  75 SW13      29.94F
$$

REGIONAL REPORTS...WYOMING/IDAHO/WASHINGTON

CITY           SKY/WX    TMP DP  RH WIND       PRES   REMARKS
GILLETTE       PTSUNNY   64  45  49 NW13      29.96S
SHERIDAN       CLOUDY    64  45  49 MISG      29.99S
BUFFALO WY     CLOUDY    57  45  64 N12G20    30.01S
CODY           MOSUNNY   63  43  48 CALM      29.98S
YELLOWSTONE LA   N/A     47  24  40 VRB7      30.14R
IDAHO FALLS    MOSUNNY   62  26  25 SW18G26   30.07S
SALMON         PTSUNNY   61  36  39 N8        29.99F
BOISE          SUNNY     65  28  24 W12G17    30.07F
SPOKANE        PTSUNNY   58  34  40 S10G16    30.06S
$$

REGIONAL REPORTS...ALBERTA

CITY           SKY/WX    TMP DP  RH WIND       PRES   REMARKS
EDMONTON       CLOUDY    57  39  51 NW7       29.85S
CALGARY        LGT RAIN  54  32  43 W14G22    29.88R
LETHBRIDGE     MOSUNNY   63  28  27 W22G28    29.89S
MEDICINE HAT   TSTM      59  45  58 W12       29.88R
WATERTON GATE    N/A     54  30  40 SW20G32     N/A
MILK RIVER       N/A     59  32  36 NW15G22     N/A
$$

REGIONAL REPORTS...SASKATCHEWAN

CITY           SKY/WX    TMP DP  RH WIND       PRES   REMARKS
SWIFT CURRENT  MOSUNNY   54  46  76 VRB3      29.88S
REGINA         CLOUDY    59  48  67 SE13      29.90F
SASKATOON      MOSUNNY   64  46  52 SE15G21   29.88F
CYPRESS HILLS    N/A     52  39  62 NW6         N/A
VAL MARIE        N/A     61  45  55 W14         N/A
ROCKGLEN         N/A     55  50  82 NW8         N/A
$$




USA.gov is the U.S. government's official web portal to all federal, state and local government web resources and services.